Wind_Speed
70 69 69 68 68 68 69 69 70 70 70 70 69 69 69 70 71 72 73 73 73 73 73 73 73 73 73 74 74 74 74 74 75 75 76 75 76 76 77 77 77 76 77 78 78 79 79 80 80 81 81 81 81 81 81 82 83 84 84 84 84 84 83 83 81 79 77 77 76 75 75 75 75 75 76 76 77 77 77 78 78 79 80 81 82
72 72 72 71 71 71 71 71 71 72 72 72 72 71 72 72 73 74 74 75 75 75 75 75 75 76 76 76 75 75 75 75 76 76 76 76 76 77 77 77 77 77 77 78 78 79 80 80 80 80 81 80 80 80 81 82 83 83 83 83 83 82 82 82 80 78 76 75 75 74 74 74 75 75 76 77 77 79 79 80 81 82 82 83 83
70 70 71 71 71 72 72 72 73 73 73 74 74 74 74 75 76 76 76 77 77 77 77 77 77 78 78 77 76 76 76 76 76 76 76 76 77 77 77 77 77 77 78 78 79 80 80 80 79 79 80 80 80 81 81 82 82 82 82 82 81 81 80 80 79 76 74 73 73 73 73 74 75 76 77 78 79 80 81 81 82 83 83 83 84
67 68 69 70 71 72 73 74 74 75 75 75 75 76 76 77 77 77 77 78 78 78 78 79 79 79 79 78 76 76 76 76 76 76 76 76 77 77 77 77 78 78 78 79 79 80 80 79 79 79 80 80 80 81 81 80 80 80 80 80 79 79 78 77 76 75 73 72 72 72 73 74 75 76 78 78 79 80 81 81 82 83 83 84 84
68 69 70 71 72 73 74 74 75 75 75 76 76 76 77 77 77 77 77 77 78 78 79 80 80 79 78 77 76 76 76 76 76 76 76 77 77 77 78 78 78 79 79 79 79 79 79 79 78 79 80 80 80 79 79 78 78 78 78 78 77 77 76 76 75 74 72 71 72 73 74 75 76 77 78 78 79 80 80 81 82 83 84 84 84
71 71 71 72 72 72 73 73 73 74 75 75 75 76 76 76 76 77 77 77 78 79 80 79 79 77 76 75 75 75 75 75 75 76 76 77 77 77 78 78 78 79 79 79 79 79 78 78 78 79 80 79 78 77 76 76 76 76 76 76 76 76 76 75 74 74 73 72 73 74 74 75 76 76 77 78 79 80 81 81 82 83 83 83 83
71 71 71 71 70 70 70 71 72 73 74 74 75 75 76 76 77 77 78 79 79 79 79 78 77 75 75 74 75 75 75 75 75 75 76 76 76 77 77 78 78 78 78 78 78 78 78 78 78 79 78 77 76 75 74 74 74 74 75 75 76 76 75 75 74 74 73 73 73 74 75 75 76 76 77 79 80 80 81 82 82 82 83 83 82
72 71 71 70 70 70 71 72 72 73 74 75 76 76 77 77 78 79 80 80 79 78 77 76 75 75 74 74 74 74 74 74 74 74 75 75 76 77 77 78 78 78 78 77 77 77 77 78 78 77 76 75 74 73 73 73 74 74 74 75 75 75 75 74 74 73 73 74 74 74 75 75 76 77 78 79 80 80 81 82 81 81 81 81 81
71 71 70 70 71 71 72 72 72 73 74 75 76 77 77 79 80 81 81 80 79 78 77 76 75 75 74 74 74 73 73 73 73 74 74 75 76 76 77 77 77 77 77 77 77 77 77 77 76 75 74 73 72 72 72 73 73 74 74 74 75 74 73 73 73 73 74 74 73 74 75 76 76 77 78 79 79 80 81 82 80 80 80 80 79
68 68 69 69 69 70 70 71 72 73 74 75 77 78 80 81 81 80 79 78 77 76 75 75 74 74 73 73 72 72 72 72 73 73 74 75 76 76 76 76 76 76 76 76 76 76 76 75 74 73 72 71 71 71 72 72 73 73 73 73 73 73 72 72 73 73 74 74 74 75 76 76 76 77 78 78 79 80 80 81 80 80 80 80 78
66 66 67 68 69 69 71 72 73 75 76 77 78 79 79 79 78 77 76 76 75 74 74 73 72 72 71 71 71 71 72 72 73 74 74 75 75 75 75 75 76 76 76 76 75 75 74 73 72 71 70 70 70 70 71 71 71 71 72 72 71 71 72 72 72 73 74 74 74 75 76 76 76 77 77 78 79 80 80 81 80 80 81 80 78
67 67 68 69 71 72 73 74 75 75 76 76 76 76 75 75 75 75 74 74 73 72 72 71 71 71 70 71 71 71 72 72 73 73 74 74 74 74 75 75 75 75 75 74 73 72 71 70 69 69 68 69 69 69 70 70 70 71 71 70 70 71 71 72 73 73 74 75 75 75 75 75 75 76 77 79 80 81 81 81 81 81 81 81 80
68 69 69 70 71 72 72 73 73 74 74 74 74 73 73 73 73 72 72 71 70 70 70 70 70 70 70 71 71 71 72 72 72 73 73 73 74 74 74 74 74 73 72 71 70 68 68 67 67 67 67 67 68 68 69 69 70 70 70 70 70 70 71 72 73 74 74 75 75 74 75 75 76 76 78 80 81 82 81 82 82 82 82 82 81
68 69 69 70 71 72 73 73 73 73 73 72 71 71 71 70 70 69 69 69 69 69 69 69 69 69 70 70 70 70 71 71 72 72 72 73 73 73 72 71 70 69 67 66 66 65 65 65 65 65 66 66 67 67 68 68 69 69 69 69 70 70 71 72 73 74 74 74 75 74 74 76 76 77 79 81 83 83 83 83 83 83 83 82 81
70 71 72 72 73 73 73 72 71 71 70 70 69 69 69 68 67 67 66 66 67 67 67 67 68 68 69 69 69 69 70 70 70 71 70 70 69 69 67 66 65 64 63 63 63 63 63 63 63 64 64 65 66 66 67 67 68 68 69 69 70 70 71 72 73 74 75 74 75 75 75 77 78 79 80 82 83 83 84 84 84 83 83 81 80
70 70 70 71 71 70 70 69 68 68 67 67 66 66 65 65 64 64 64 64 65 65 66 66 67 67 67 67 68 68 69 69 68 68 66 66 65 64 63 62 61 61 61 61 61 61 61 62 62 63 64 65 65 66 66 67 67 68 68 69 70 70 71 71 73 75 75 75 75 76 77 78 79 80 81 82 83 83 84 84 83 82 82 80 78
67 67 66 66 66 66 65 65 64 64 64 63 63 63 62 62 62 63 63 63 64 65 65 66 66 66 66 67 67 67 67 66 64 63 62 62 61 60 60 59 59 59 59 59 59 60 61 61 62 63 63 64 65 66 66 67 68 68 69 70 70 70 71 72 73 74 75 76 76 77 78 79 80 81 81 82 82 83 84 83 81 82 81 80 78
66 65 64 64 64 63 63 63 62 62 62 62 62 62 62 63 63 63 64 65 65 66 66 66 65 65 65 66 65 64 63 61 60 59 59 58 58 58 57 57 57 58 58 59 59 60 61 61 62 63 63 63 64 65 66 67 67 68 69 70 70 70 71 72 74 74 75 76 77 78 78 79 80 80 81 81 82 83 83 81 80 81 82 80 80
68 66 64 63 63 62 62 62 61 62 62 62 63 63 64 64 65 66 67 67 68 67 66 64 63 63 64 63 61 59 58 57 57 56 56 56 56 56 56 57 57 57 58 58 59 60 61 61 62 63 63 64 64 65 66 67 67 68 69 70 70 70 71 72 73 74 75 76 77 78 79 79 80 80 80 80 81 82 82 81 81 82 82 81 81
69 68 66 64 63 63 62 62 62 63 63 64 65 65 67 68 69 69 70 69 68 67 65 63 62 62 61 58 56 55 55 55 55 54 54 55 55 56 56 57 57 58 58 59 60 60 61 62 62 63 64 64 65 66 67 68 69 70 70 70 70 70 71 73 73 74 75 76 77 77 78 79 79 79 79 79 79 80 82 83 83 83 82 81 80
69 68 67 65 65 64 64 64 64 65 65 66 67 68 69 69 69 68 66 65 64 63 61 60 59 58 56 54 54 53 53 53 53 54 54 55 56 56 57 58 58 59 59 60 61 61 62 63 63 64 64 65 65 66 67 69 71 71 71 71 71 71 72 73 74 74 75 76 76 77 77 77 78 78 78 79 79 80 82 83 83 83 82 80 77
63 63 63 63 63 63 64 64 64 64 65 65 65 64 63 62 61 60 58 58 57 56 55 55 54 53 52 52 52 52 52 52 53 54 55 56 57 58 58 59 59 60 60 61 62 62 63 63 64 64 65 65 66 67 68 69 71 71 71 71 72 73 73 74 74 74 75 75 75 75 76 76 76 77 77 78 79 80 82 82 82 82 80 77 74
50 52 53 54 55 56 57 57 57 58 58 57 56 55 54 53 52 52 52 52 52 51 50 50 50 50 50 50 51 51 52 53 54 55 56 57 58 59 59 60 60 61 61 62 62 62 63 63 64 64 65 66 67 68 69 69 70 71 71 72 73 73 74 74 74 74 75 75 75 74 74 74 74 74 75 76 77 78 79 80 80 79 77 74 71
41 42 44 45 46 48 49 49 50 49 49 48 48 47 47 46 47 47 48 48 48 47 47 47 47 48 48 49 51 52 52 53 55 56 57 58 59 59 60 61 61 62 62 62 62 63 63 63 64 65 66 67 68 69 69 69 70 71 72 73 74 74 74 74 74 74 74 74 74 74 73 73 73 72 72 73 74 75 75 76 76 75 73 71 67
37 38 39 40 41 42 43 43 43 43 42 42 41 41 42 42 43 44 44 45 45 45 45 46 47 48 49 50 51 53 54 55 56 57 58 58 59 60 61 62 62 63 63 63 63 64 64 65 66 66 67 68 68 69 70 70 71 72 72 73 74 74 74 74 74 74 74 74 74 73 73 72 72 72 72 72 71 70 69 69 70 70 69 68 65
35 35 35 36 37 38 38 39 38 38 38 38 38 38 39 40 41 42 43 43 44 45 46 47 48 49 50 51 52 53 54 55 56 57 58 59 60 61 61 62 62 63 63 64 65 66 67 67 67 68 68 69 70 70 71 71 72 72 73 73 74 74 74 74 74 74 74 73 73 72 72 72 72 72 72 71 70 68 65 63 63 64 65 65 64
35 35 35 35 36 36 37 38 38 38 37 37 38 38 39 40 41 42 43 44 45 46 47 48 49 50 51 51 52 53 54 56 57 58 59 60 61 62 62 63 63 64 65 66 67 68 68 69 69 69 70 70 71 71 72 72 73 73 73 73 74 74 74 74 74 73 73 72 72 72 72 72 71 71 70 69 68 66 63 61 60 60 60 62 63
38 38 38 38 38 38 39 39 39 40 40 40 40 40 41 42 43 44 44 45 46 47 48 49 50 50 51 52 53 54 55 56 58 59 60 61 62 63 63 64 65 66 67 68 69 70 70 70 71 71 72 72 72 72 73 73 73 73 73 74 74 74 74 73 73 72 72 71 71 71 70 70 69 68 67 66 64 62 61 60 59 58 58 59 59
39 40 40 40 40 41 41 41 41 41 41 41 42 42 42 43 44 45 45 46 46 47 48 49 50 51 52 53 54 54 55 57 59 60 62 63 64 65 65 66 67 69 70 70 71 71 72 72 73 73 74 74 74 73 73 73 73 73 73 73 73 73 73 73 72 71 71 70 69 68 68 67 66 65 64 63 62 60 59 59 58 58 58 58 56
39 39 40 40 41 41 41 41 41 41 41 42 42 42 42 43 43 44 45 45 46 47 48 49 51 52 52 53 54 55 56 57 59 61 63 65 67 68 69 69 70 71 71 72 73 73 74 74 75 75 75 75 75 74 74 73 72 72 71 71 71 71 71 71 70 70 69 69 67 66 65 64 63 62 61 61 60 59 59 59 58 58 59 59 58
37 38 38 38 39 39 39 40 40 40 40 41 41 41 42 42 43 43 44 45 46 47 48 49 51 52 53 54 55 56 57 59 61 63 65 67 69 71 72 73 73 73 73 74 75 76 76 76 75 75 75 75 75 74 73 73 72 71 70 70 69 69 69 68 68 68 67 66 65 64 63 62 61 60 59 59 58 58 58 58 58 59 59 59 59
37 37 37 37 38 38 38 39 39 39 39 39 39 40 40 41 42 43 44 44 45 47 48 50 51 53 54 56 57 59 60 62 64 66 67 69 71 73 74 75 75 76 76 77 77 77 77 76 75 75 74 73 72 72 71 70 70 69 68 67 67 67 67 67 66 66 65 65 63 62 61 60 59 59 58 58 57 57 57 58 58 58 59 59 59
36 36 36 36 36 37 37 37 37 37 37 37 38 38 39 39 41 43 44 46 47 49 51 52 54 56 58 59 61 63 64 66 67 69 71 73 75 75 76 77 77 78 78 78 78 78 77 76 75 74 73 71 70 69 68 66 66 65 65 64 64 64 65 65 65 64 63 62 62 61 60 60 59 59 58 58 58 58 58 59 59 60 60 60 60
34 34 34 34 34 34 35 35 35 35 35 36 37 38 39 40 42 44 46 48 51 53 55 56 58 59 61 62 64 66 67 69 71 72 74 76 77 78 78 78 79 79 78 78 77 76 75 74 73 72 71 69 68 66 65 64 63 62 62 62 62 62 62 62 61 61 60 61 61 60 60 60 60 60 60 60 61 61 61 62 62 63 63 63 63
32 32 32 32 32 32 32 33 33 34 35 36 38 40 41 43 45 46 48 50 52 55 58 60 61 62 63 65 66 68 70 72 73 75 76 78 78 78 78 78 78 77 76 75 73 72 71 70 68 67 66 65 64 62 61 60 60 60 60 59 59 59 58 58 57 57 58 59 60 60 60 61 62 62 63 63 64 65 66 66 67 67 67 67 67
30 29 29 29 30 30 31 32 34 36 37 39 41 42 44 46 47 49 50 52 54 56 58 60 62 64 66 67 68 69 70 71 72 73 74 75 75 74 73 72 71 70 69 68 66 65 63 62 61 60 59 58 57 57 56 56 55 55 55 55 54 54 54 54 55 56 57 58 59 60 61 62 63 64 65 66 67 68 69 70 70 71 71 71 71
27 27 27 28 29 31 33 34 36 38 39 41 43 44 46 48 49 50 52 53 55 56 58 60 62 64 65 66 66 66 67 67 67 66 66 66 65 64 62 60 59 57 56 55 54 53 52 52 51 50 50 49 49 48 48 48 48 48 48 48 49 49 50 52 54 56 57 59 60 62 63 65 66 67 68 69 70 71 71 72 73 73 74 74 74
26 27 28 30 32 33 35 37 38 40 41 43 44 46 47 49 50 52 53 54 55 57 58 59 59 60 60 60 60 60 58 57 55 53 51 50 48 46 44 43 41 40 40 40 40 40 40 40 40 39 39 39 39 40 40 41 42 43 45 46 48 50 51 53 55 57 59 61 62 64 66 67 68 70 71 71 72 73 74 74 75 76 76 77 78
27 28 30 32 34 35 37 38 40 41 43 44 46 47 49 50 51 52 53 54 55 56 55 55 54 53 52 51 50 48 45 42 40 38 36 34 33 31 29 28 28 27 27 28 28 29 30 30 30 31 32 34 35 37 39 41 43 45 47 49 51 53 54 56 58 59 61 63 65 66 68 69 71 72 73 74 74 75 76 76 77 77 78 78 79
29 31 32 34 35 36 38 39 41 43 44 45 47 48 49 50 51 52 53 53 52 51 50 48 47 45 43 40 37 34 31 29 28 27 26 25 25 24 23 22 22 22 23 23 24 25 27 28 30 32 33 35 37 39 41 43 45 47 49 51 53 55 57 58 60 62 64 65 67 69 70 71 72 72 72 73 73 73 73 73 74 74 74 75 75
31 32 34 35 36 38 39 41 42 44 45 46 47 48 49 50 51 51 50 49 47 46 44 42 39 36 34 30 28 25 23 22 22 22 22 23 23 23 23 23 23 24 25 26 27 28 30 32 34 35 37 39 40 42 44 45 47 49 51 53 55 57 60 62 63 64 65 66 67 67 68 68 69 69 69 69 69 69 69 69 70 70 70 71 72
32 33 35 36 38 39 41 42 43 45 45 46 47 48 49 50 49 48 46 44 42 40 38 35 32 30 27 25 23 21 21 20 21 21 22 23 24 25 25 26 27 27 28 29 31 32 33 35 36 38 39 41 43 44 46 47 49 51 53 56 58 60 61 62 63 63 63 63 63 63 63 64 64 65 65 66 66 67 67 68 69 69 69 70 71
33 35 36 37 39 40 41 43 44 45 45 46 46 47 48 48 46 44 42 40 38 35 32 29 27 25 24 23 21 21 21 21 22 23 24 25 26 26 27 28 28 29 30 31 32 33 35 36 38 39 41 43 44 46 48 50 52 54 56 57 58 58 59 59 59 59 59 59 59 59 60 60 61 62 63 64 65 66 67 67 68 68 69 69 70
34 36 37 38 40 41 42 43 44 45 45 46 46 47 47 45 42 40 38 36 34 31 28 26 25 24 23 22 21 21 22 22 24 25 26 27 27 28 29 29 30 31 32 33 34 35 36 37 39 41 42 44 46 48 50 52 54 55 55 55 55 55 55 55 55 55 55 56 56 57 58 59 60 61 62 63 63 64 64 64 64 64 63 63 63
35 36 38 39 40 41 42 43 44 44 45 45 46 46 44 42 39 37 36 33 31 28 26 25 24 23 23 22 22 22 23 24 25 26 27 28 29 30 30 31 32 33 33 34 35 36 38 39 40 42 44 46 48 50 52 53 53 53 53 53 53 52 52 52 52 52 53 53 54 56 57 57 58 58 58 58 57 56 56 55 55 54 54 54 54
35 37 38 39 40 41 42 43 43 44 44 45 46 44 42 39 37 35 33 31 29 27 25 24 24 23 23 22 22 23 23 24 26 27 28 29 30 31 32 33 34 35 35 36 37 38 39 41 42 44 46 48 50 51 52 52 51 51 50 50 50 49 49 49 49 50 51 52 53 53 53 53 52 51 49 48 47 46 45 45 45 45 45 45 45
36 37 38 39 41 42 42 43 43 44 44 45 45 42 39 37 35 34 32 30 28 26 25 24 24 23 23 23 23 23 24 25 26 27 28 30 31 32 33 35 36 36 37 38 39 40 41 42 44 46 48 50 51 51 50 50 49 49 48 47 46 46 46 46 47 48 48 49 48 47 46 45 43 41 40 38 37 37 36 36 36 36 36 36 36
36 38 39 40 41 42 43 43 43 44 44 45 44 41 37 35 34 32 30 29 27 26 25 24 24 24 24 24 24 24 25 25 27 28 29 31 32 34 35 36 37 38 39 40 40 42 43 44 46 47 49 50 50 49 49 48 47 46 45 44 43 42 43 43 44 44 44 43 41 39 37 36 34 32 31 30 29 28 28 27 27 27 27 27 27
38 39 41 41 42 42 43 43 43 44 44 44 43 39 36 34 33 31 30 28 27 26 25 24 24 24 24 25 25 25 26 26 28 29 31 32 34 35 37 38 39 39 40 41 42 43 44 45 47 48 49 49 48 48 47 46 44 43 42 40 39 39 40 40 40 40 38 36 33 32 30 28 26 24 23 22 21 20 19 19 19 18 18 18 17
39 41 42 42 43 43 43 43 44 43 43 44 42 38 35 33 32 30 29 28 27 26 25 25 24 24 25 25 26 27 27 28 29 31 32 34 35 37 38 39 40 40 41 42 43 44 45 46 47 48 48 47 46 46 44 43 41 40 38 37 36 36 36 37 36 34 32 30 27 26 24 22 20 18 17 16 15 15 14 13 12 11 11 10 10
41 42 43 43 43 44 44 44 44 43 43 43 42 38 34 32 31 30 28 28 27 26 25 25 25 25 25 26 27 27 28 29 30 32 33 35 36 38 39 40 40 41 41 42 43 44 45 46 47 47 46 46 45 43 41 40 38 37 35 33 33 33 33 33 32 31 28 26 24 22 20 18 17 16 15 14 13 12 12 11 10 10 9 9 8
Wind_Direction
268 268 268 268 268 268 268 267 268 268 269 270 271 272 272 273 274 274 274 274 275 275 276 277 277 278 278 279 279 279 279 278 277 276 275 275 275 275 275 276 276 277 277 277 278 278 278 278 278 278 278 278 278 278 278 278 278 278 278 278 277 277 276 276 275 275 274 273 272 271 270 270 270 270 270 269 270 270 270 270 270 270 269 269 269
269 269 269 270 269 269 269 268 268 269 269 269 270 270 271 272 273 273 274 274 274 275 276 277 277 278 278 279 279 279 279 277 276 276 276 276 276 276 276 277 277 277 277 278 278 278 278 278 278 278 278 278 278 278 278 278 277 277 277 276 276 275 275 274 274 273 273 272 271 270 270 270 269 270 270 270 270 271 271 271 271 271 270 270 270
269 269 269 269 269 270 270 269 269 269 268 269 269 270 271 272 273 274 274 274 275 276 277 278 278 279 279 279 279 279 278 277 276 276 276 276 277 277 277 277 277 277 277 277 277 277 277 278 278 278 278 278 278 278 278 277 277 276 276 275 275 274 274 273 273 273 272 271 270 270 270 270 269 270 270 270 271 271 272 272 271 271 271 270 270
269 269 269 269 270 270 270 269 269 269 268 269 269 270 271 272 273 274 275 275 276 277 278 279 279 279 279 279 279 278 277 276 275 275 276 276 276 276 276 276 276 277 277 277 277 277 277 278 278 278 278 278 278 278 278 277 276 275 275 274 274 273 273 272 272 272 271 271 270 270 270 270 271 271 271 272 272 272 272 272 272 272 272 271 271
271 271 270 270 270 269 269 269 268 268 268 268 269 270 271 272 273 274 275 276 276 277 278 279 279 279 279 279 278 277 276 275 274 275 275 275 275 276 276 276 276 276 277 277 277 277 277 277 277 277 278 278 278 278 277 276 275 274 274 273 273 272 272 272 272 272 272 271 271 271 271 272 272 272 272 273 273 273 273 273 273 273 272 272 272
273 273 272 271 270 269 268 268 268 268 269 270 270 271 272 272 273 274 275 276 277 278 279 279 279 279 279 278 278 276 275 274 275 275 275 275 275 275 276 276 276 276 277 277 277 277 277 277 277 277 278 278 278 277 276 274 273 273 272 272 272 272 272 272 272 272 273 272 272 272 273 273 273 273 273 274 274 274 274 273 273 273 273 272 272
274 273 272 271 270 270 269 269 270 270 270 271 271 272 273 273 274 275 277 278 279 279 280 279 279 279 278 278 277 275 275 275 275 275 275 275 275 276 276 276 276 277 277 277 277 277 277 277 278 278 278 277 276 275 273 272 272 271 271 271 271 271 272 272 273 273 273 273 273 273 274 274 274 274 275 275 275 275 274 273 273 273 273 272 272
273 272 271 271 271 271 271 271 271 271 271 271 272 272 273 274 276 277 278 279 280 280 280 279 279 279 278 277 276 275 275 275 275 275 275 275 275 276 276 276 277 277 277 277 277 277 277 278 278 277 276 275 273 272 271 270 270 270 270 271 271 272 272 273 273 274 274 274 274 275 275 275 276 276 276 276 275 275 274 273 273 272 273 273 273
271 272 272 272 272 272 272 271 271 271 271 271 272 273 274 276 278 279 279 280 280 280 280 280 280 279 278 277 276 276 276 275 275 275 275 275 276 276 276 276 276 276 276 277 277 277 277 277 276 275 273 272 270 270 270 270 270 270 271 271 272 273 273 274 274 275 275 275 275 276 276 276 277 277 276 276 275 274 274 274 274 273 273 273 273
272 272 272 272 272 272 271 271 271 271 272 273 274 276 277 278 278 279 279 280 281 281 281 280 280 279 278 277 276 276 275 275 275 275 275 275 275 275 276 276 276 276 276 277 277 277 276 275 274 272 271 270 270 271 271 271 271 271 271 272 272 273 273 274 275 275 275 276 276 276 277 277 277 277 276 276 275 275 275 275 275 275 274 274 273
273 273 274 274 274 274 274 274 274 274 275 276 277 277 277 277 278 279 281 282 282 282 281 280 278 277 276 276 276 275 275 275 275 275 275 275 275 275 275 275 276 276 276 276 276 275 274 273 272 271 271 271 272 272 271 271 271 271 271 272 272 273 274 274 275 275 275 276 276 277 277 278 278 277 277 277 276 276 276 276 276 275 275 274 274
274 275 276 276 277 277 277 277 277 277 277 277 277 277 277 278 280 281 282 282 281 280 278 277 276 276 275 275 275 275 274 274 274 274 274 274 275 275 275 276 276 276 275 275 274 274 273 272 272 272 272 272 272 272 271 271 271 271 271 272 272 273 274 274 275 275 276 277 277 278 278 278 278 277 277 277 276 276 276 276 276 275 275 275 275
274 275 276 276 277 278 278 278 278 278 278 278 278 278 279 280 281 281 280 279 278 277 276 275 275 274 274 274 274 274 274 274 274 274 275 275 275 275 275 275 275 274 274 273 273 272 271 271 272 272 272 272 272 271 271 271 271 271 272 272 273 274 274 275 276 276 277 277 278 278 278 278 278 278 277 277 277 277 277 277 276 276 276 276 275
275 276 276 277 278 278 279 279 279 280 280 280 280 280 280 280 280 278 277 276 275 275 274 274 274 274 274 274 274 274 274 275 275 275 276 276 275 275 274 273 273 273 272 272 271 271 271 271 272 272 272 272 271 271 271 271 271 272 272 273 274 274 275 276 277 277 277 278 278 279 278 278 278 278 277 277 277 278 278 277 277 276 276 276 276
278 278 278 278 279 279 280 280 280 280 280 280 280 280 279 278 277 276 275 275 275 275 275 275 275 275 275 275 275 275 275 276 276 276 276 275 274 273 273 272 272 271 271 271 271 271 271 271 271 271 271 272 272 272 272 272 272 273 274 274 275 275 276 277 277 278 278 278 279 279 279 279 279 278 278 278 278 278 278 277 277 277 277 276 276
279 278 278 278 278 278 278 278 278 278 278 278 278 278 277 277 276 276 276 276 276 276 276 276 276 275 275 275 275 276 276 276 276 275 274 273 272 272 272 271 271 271 271 271 271 271 272 272 272 272 272 272 272 272 273 273 274 274 275 275 276 276 277 278 278 279 279 280 279 279 279 279 279 279 279 279 278 278 278 277 277 277 277 276 276
278 278 278 278 277 277 277 277 277 277 277 277 277 276 276 276 276 276 276 276 276 276 276 275 275 275 275 276 276 276 276 276 275 274 273 272 271 271 271 271 271 271 271 271 271 271 272 272 273 273 273 273 274 274 275 275 275 276 276 276 277 277 278 279 279 279 280 280 280 280 280 280 279 279 279 278 278 277 277 277 277 277 277 277 277
278 278 277 277 276 276 275 275 275 275 275 275 275 275 275 275 275 275 276 276 276 275 275 274 274 275 276 276 276 276 275 274 273 272 271 271 271 271 271 271 271 271 271 272 272 272 272 273 273 274 274 274 275 275 276 276 276 276 277 277 278 278 279 279 279 280 280 280 281 281 280 280 279 278 278 278 277 277 277 277 277 276 277 277 277
278 277 276 275 274 274 274 274 274 274 274 274 274 274 274 274 274 274 274 275 275 275 275 275 276 277 277 276 275 274 274 273 272 271 271 271 271 271 271 271 272 272 272 272 273 273 273 274 274 274 275 275 275 276 276 276 276 276 277 278 279 280 280 280 280 280 281 281 281 280 280 280 279 278 278 278 277 277 277 277 276 276 276 277 276
276 275 274 273 273 272 272 273 273 273 273 273 273 274 274 274 275 275 275 275 275 275 275 276 277 277 276 274 273 273 272 272 271 271 271 272 272 272 273 273 273 273 273 273 274 274 275 275 275 276 276 276 277 277 278 278 278 278 278 279 279 280 280 280 280 280 280 280 280 280 280 280 280 279 278 278 277 277 277 277 277 277 277 277 276
274 273 273 272 272 272 273 273 274 274 274 274 274 275 275 275 276 276 276 276 276 276 276 276 276 276 274 273 272 272 271 272 272 272 272 273 273 274 274 274 274 274 275 275 275 276 276 276 277 277 277 278 278 278 279 279 280 280 280 281 280 280 280 280 280 280 280 280 280 280 280 280 280 279 279 279 278 278 278 278 278 278 278 277 275
276 275 275 275 275 275 275 276 276 276 277 277 277 277 277 277 277 277 277 277 276 276 275 274 274 273 273 272 272 272 272 272 273 274 274 274 275 275 275 275 275 275 276 276 276 277 277 277 278 278 279 279 279 279 280 281 281 282 282 282 281 281 280 281 281 280 281 280 280 280 280 280 280 280 280 280 280 280 279 279 279 278 278 276 275
282 280 279 279 278 278 279 279 279 280 280 280 279 279 278 278 278 278 278 278 276 275 274 274 274 273 273 273 273 273 273 274 274 275 275 276 276 276 276 276 276 276 276 276 277 277 278 278 279 279 279 279 280 280 281 282 282 283 283 282 282 282 282 282 282 281 281 281 280 280 279 279 279 279 280 280 280 279 279 279 278 278 277 275 273
287 286 284 283 282 282 282 281 281 280 280 280 279 279 279 279 279 279 279 277 276 275 275 274 274 274 274 274 274 274 275 275 275 275 276 276 276 276 276 276 277 277 277 277 278 278 278 279 279 279 279 280 281 281 282 282 283 283 283 283 283 283 283 283 283 282 282 282 281 280 279 279 278 278 278 278 278 278 279 278 277 276 275 273 271
290 289 287 286 285 283 282 281 280 280 279 279 279 280 280 280 280 279 278 276 276 275 275 275 275 275 275 275 275 275 275 275 275 276 276 276 276 277 277 277 278 278 279 279 279 279 279 279 279 280 280 281 282 282 282 282 283 283 283 284 284 284 283 283 283 283 283 283 282 281 280 279 279 278 277 277 277 277 277 276 275 274 273 270 267
291 290 289 289 287 286 284 282 281 280 280 281 281 281 281 280 280 279 278 277 277 277 276 276 276 275 275 276 276 276 276 277 277 277 277 277 277 278 278 279 280 280 281 281 280 280 280 280 281 281 281 282 282 282 282 283 283 284 284 284 284 284 284 284 284 284 283 283 282 282 281 280 280 279 279 278 278 277 275 273 271 270 269 268 265
290 290 291 291 291 290 289 287 285 283 283 282 282 282 281 281 280 280 279 279 278 277 277 277 277 277 277 277 277 277 278 278 278 278 279 279 279 280 280 281 281 281 281 281 281 281 282 282 282 282 282 282 282 283 283 284 284 284 284 284 284 284 284 284 284 284 284 283 282 282 281 281 281 280 280 279 278 277 274 271 268 266 265 265 264
287 288 289 291 292 292 292 290 288 286 285 284 283 282 282 281 281 280 280 280 279 279 278 278 278 279 279 279 279 280 280 280 280 281 281 281 281 281 281 281 281 281 282 282 282 283 283 283 283 283 283 283 283 284 284 284 284 284 284 284 284 284 284 284 284 284 283 282 282 282 281 281 280 280 279 278 277 276 274 271 268 265 263 262 263
285 286 287 288 290 291 291 291 289 288 286 285 284 283 283 282 282 282 281 281 281 281 281 281 281 281 281 281 282 282 282 282 282 282 282 282 282 282 282 282 282 282 283 283 284 284 284 283 283 284 284 284 284 284 284 284 284 284 284 284 284 284 284 284 283 283 282 281 281 281 280 279 279 278 277 276 275 274 273 271 269 267 265 264 263
285 285 286 287 288 289 289 289 288 287 286 285 285 284 284 283 284 284 284 284 283 283 283 284 284 284 283 283 283 283 283 283 283 283 284 284 284 283 283 283 283 284 284 284 284 284 284 284 284 284 284 284 284 284 284 284 284 284 284 284 283 283 283 283 282 282 281 281 280 280 279 278 277 276 276 275 275 274 273 272 270 269 267 266 265
287 287 287 287 287 288 288 288 287 287 286 286 287 287 287 286 286 286 286 287 287 286 286 285 285 285 285 285 285 284 284 284 284 284 284 285 284 284 284 284 284 284 284 284 283 283 283 284 284 284 284 285 284 284 284 284 284 284 283 283 283 282 282 281 281 280 280 280 279 278 277 277 276 276 275 275 274 273 273 272 271 270 269 268 267
288 288 288 288 288 288 288 288 288 288 289 289 289 290 290 289 289 289 288 288 288 288 287 287 287 287 287 286 286 286 285 285 284 284 284 283 283 283 284 284 284 284 283 283 283 283 283 283 283 283 284 284 284 284 284 284 284 284 283 283 283 282 281 281 280 280 279 278 278 277 276 276 275 275 274 274 274 273 273 273 272 271 270 269 268
290 290 290 290 290 290 289 289 290 290 290 290 291 291 291 291 292 292 292 291 291 290 290 289 289 289 288 288 288 287 287 286 285 285 284 283 283 283 283 283 283 283 283 282 283 283 283 283 283 283 283 283 283 283 283 283 283 283 283 282 282 282 281 282 281 281 280 279 278 277 277 276 276 275 274 274 274 273 273 273 272 272 271 270 269
290 290 291 291 290 290 291 291 291 292 292 292 293 293 293 293 293 293 293 293 293 293 292 292 291 291 290 290 289 289 288 288 287 286 285 284 284 284 283 283 282 282 282 282 282 283 283 283 283 283 283 283 283 283 283 282 282 281 281 280 280 280 280 280 279 279 278 278 279 279 278 278 278 277 276 276 275 275 274 274 273 273 272 271 271
291 291 291 292 292 293 293 294 294 295 295 295 295 295 295 295 294 294 294 294 294 294 294 294 293 293 292 292 291 291 290 289 288 288 287 286 285 285 284 284 283 283 283 283 282 282 283 283 283 283 283 283 283 283 283 283 282 282 281 281 280 280 279 278 276 276 276 276 277 277 278 278 278 278 278 278 277 277 277 276 275 274 274 273 272
291 292 293 294 295 295 296 296 296 297 297 297 297 297 296 296 296 295 295 295 294 294 294 294 294 294 294 293 293 292 292 291 290 290 289 288 288 287 286 285 285 285 284 284 283 283 283 283 282 282 283 283 283 283 283 283 283 283 282 282 281 280 279 278 277 276 276 276 276 276 276 276 276 276 277 277 277 276 276 276 275 275 274 273 272
294 294 295 296 296 297 297 298 298 298 298 298 298 298 297 297 297 297 296 296 295 295 295 295 295 295 295 295 295 295 294 294 293 293 292 291 291 290 290 289 289 288 287 286 286 285 285 285 284 284 284 285 285 285 284 284 284 284 283 282 282 281 280 279 278 278 278 277 277 276 276 276 276 275 275 275 275 274 274 274 273 273 273 272 272
295 296 296 297 298 299 300 300 300 300 299 299 299 298 299 299 298 298 298 298 297 297 297 297 297 297 298 298 298 299 299 299 299 298 298 298 298 299 299 299 298 296 295 293 292 291 290 290 289 289 289 288 288 288 288 287 287 286 285 285 284 283 282 281 281 280 280 279 279 278 278 277 277 276 276 275 275 274 274 273 273 272 272 271 271
297 298 299 300 301 301 301 301 301 300 300 300 300 301 301 301 300 300 300 300 300 300 300 300 300 301 301 302 302 304 305 307 308 309 310 312 314 315 316 315 313 311 308 305 303 301 299 298 297 295 294 293 292 291 291 290 290 289 288 288 287 286 285 284 284 283 282 281 281 280 280 279 278 278 277 277 276 276 275 274 273 273 272 271 270
300 301 302 303 303 303 302 302 302 302 302 303 303 303 303 302 302 302 303 303 302 302 303 303 304 304 305 307 309 312 314 317 319 322 325 327 330 332 332 331 328 324 320 316 312 309 306 304 302 300 299 297 296 295 294 293 293 292 291 291 290 289 288 287 286 286 285 284 283 283 282 281 281 280 279 279 278 277 276 276 275 274 273 272 271
303 304 304 304 304 304 304 304 304 304 304 304 304 304 305 305 305 305 305 304 304 305 305 305 306 307 309 312 315 318 321 325 328 331 333 333 333 333 332 330 327 323 320 316 313 310 308 306 305 304 302 301 300 299 298 297 296 295 294 294 293 292 291 290 289 288 288 287 286 285 284 284 283 282 282 281 280 279 278 277 276 275 274 273 272
305 306 306 306 306 306 306 306 306 306 306 306 307 307 307 307 307 306 306 306 306 306 306 306 307 309 311 313 316 319 323 327 329 330 330 330 328 327 325 323 321 319 317 315 313 311 310 309 308 307 306 305 304 303 302 301 299 298 297 296 295 294 293 292 292 291 290 289 288 287 286 285 284 283 283 282 281 280 279 278 277 276 275 274 273
307 307 308 308 308 308 307 307 307 308 308 308 309 309 309 309 308 307 307 307 306 306 306 306 307 308 310 312 314 318 322 325 326 327 326 325 324 322 321 320 318 317 316 314 313 312 311 310 310 309 309 308 307 306 304 303 302 301 300 298 297 296 295 294 293 292 291 291 290 289 288 287 286 285 284 283 282 281 280 279 278 276 275 274 273
308 309 309 309 309 309 309 309 309 310 310 310 311 311 310 309 308 308 308 307 305 305 305 305 306 306 308 310 313 317 321 323 324 325 324 324 323 322 321 320 318 317 316 315 314 313 312 312 312 312 311 310 309 308 307 306 305 303 302 301 300 299 298 297 296 295 294 293 293 292 291 290 289 287 286 285 284 282 281 280 279 277 276 274 273
310 310 310 311 311 311 311 311 311 311 312 312 313 313 311 309 309 308 307 305 304 304 304 304 304 305 306 309 312 316 320 322 324 325 325 325 324 323 322 321 319 318 317 316 315 314 314 314 314 313 313 312 312 311 310 309 307 306 305 304 303 302 301 300 299 298 297 297 296 295 294 292 291 289 288 287 285 284 283 281 280 278 277 276 274
312 312 313 313 313 313 313 313 313 313 313 314 315 314 311 309 309 308 306 304 303 302 302 302 302 303 305 307 310 314 318 321 322 324 325 324 324 324 323 322 321 320 319 318 317 316 316 316 316 316 316 315 314 313 312 311 310 309 308 307 305 304 303 303 302 302 301 300 299 297 296 294 293 292 290 289 288 286 285 283 282 280 279 278 277
314 315 315 315 315 315 314 314 314 315 315 316 316 315 311 309 309 308 305 303 302 300 300 300 301 302 303 305 308 311 315 317 320 322 323 323 323 323 323 322 322 321 320 320 319 318 318 318 318 318 318 317 316 316 315 314 313 312 310 309 308 307 307 307 306 306 305 304 302 301 299 298 297 296 295 293 292 290 289 287 286 284 283 281 280
315 317 317 317 317 316 316 316 316 316 316 317 317 315 310 308 308 307 304 302 300 299 298 299 299 300 301 302 304 307 311 314 317 319 320 321 322 322 323 323 322 322 321 321 320 320 320 320 320 320 320 319 319 318 317 316 316 314 313 313 312 312 312 311 311 311 310 309 307 306 305 303 302 301 301 300 299 298 296 294 293 291 289 287 284
316 317 318 318 318 317 317 316 316 317 317 318 317 314 309 306 307 306 303 301 299 298 297 297 297 298 299 300 302 304 308 311 313 315 316 318 320 321 322 322 322 322 322 322 322 322 322 322 322 323 322 322 321 320 320 319 318 318 317 316 316 316 317 317 318 318 317 316 315 314 313 311 311 311 311 311 311 311 310 308 306 303 301 298 294
316 317 318 318 318 317 317 317 317 317 318 318 317 314 308 305 305 305 303 301 299 297 296 295 296 296 297 298 300 303 306 308 310 312 314 315 317 319 320 321 322 322 322 322 323 323 323 324 324 325 324 323 323 323 323 322 322 321 320 320 320 321 323 324 326 327 327 326 326 325 324 324 325 326 327 329 330 331 332 332 331 330 328 325 321
315 316 317 317 317 317 317 317 317 317 317 318 317 313 307 303 304 304 302 300 299 297 295 295 295 295 297 298 300 302 305 307 308 310 312 313 315 317 319 321 321 322 322 323 323 324 325 326 326 326 326 326 326 326 325 325 325 324 323 324 325 327 330 332 335 337 338 339 339 340 340 340 342 343 346 349 352 355 359 2 5 8 10 11 12
Height
5527 5526 5525 5524 5523 5521 5519 5518 5517 5516 5515 5514 5514 5513 5511 5510 5509 5508 5507 5506 5504 5503 5503 5502 5501 5500 5499 5498 5496 5494 5493 5491 5488 5486 5485 5484 5483 5481 5479 5478 5477 5477 5475 5473 5471 5469 5468 5467 5465 5464 5461 5460 5459 5457 5455 5453 5450 5448 5446 5445 5444 5444 5443 5441 5443 5449 5449 5447 5446 5444 5442 5442 5441 5440 5439 5437 5437 5436 5438 5438 5438 5438 5438 5438 5438
5516 5515 5514 5513 5511 5509 5508 5507 5506 5505 5505 5503 5503 5502 5500 5499 5498 5497 5497 5496 5494 5493 5492 5491 5490 5489 5488 5487 5485 5483 5482 5480 5477 5475 5474 5473 5471 5470 5468 5467 5466 5466 5463 5462 5461 5458 5456 5456 5454 5452 5449 5448 5448 5446 5444 5442 5439 5437 5435 5434 5433 5432 5432 5430 5431 5435 5438 5436 5434 5433 5433 5432 5431 5429 5428 5427 5426 5425 5426 5426 5425 5425 5426 5426 5426
5505 5504 5502 5501 5499 5498 5497 5495 5494 5494 5493 5492 5491 5490 5489 5488 5486 5486 5486 5484 5482 5481 5480 5479 5478 5477 5476 5475 5474 5472 5470 5468 5466 5464 5463 5461 5460 5458 5457 5455 5455 5454 5452 5451 5449 5446 5445 5445 5443 5440 5437 5437 5436 5434 5432 5430 5428 5425 5424 5422 5421 5421 5420 5419 5420 5423 5426 5425 5424 5422 5422 5421 5420 5419 5417 5416 5416 5414 5415 5414 5413 5413 5413 5413 5413
5493 5492 5490 5489 5488 5487 5485 5484 5483 5483 5482 5480 5480 5478 5477 5476 5475 5474 5473 5472 5471 5469 5468 5467 5466 5465 5464 5463 5462 5460 5459 5457 5455 5453 5452 5449 5448 5446 5444 5443 5443 5442 5441 5439 5437 5435 5434 5434 5432 5429 5426 5425 5425 5422 5420 5419 5417 5414 5412 5411 5410 5409 5409 5408 5409 5411 5413 5414 5414 5412 5410 5409 5409 5408 5406 5405 5405 5403 5403 5402 5401 5400 5400 5400 5400
5481 5480 5479 5478 5476 5475 5474 5473 5472 5471 5470 5469 5468 5467 5466 5465 5464 5463 5462 5461 5459 5458 5456 5455 5454 5453 5453 5451 5450 5449 5447 5445 5443 5442 5440 5437 5436 5434 5432 5431 5431 5430 5429 5427 5425 5424 5423 5423 5421 5418 5416 5415 5414 5412 5409 5407 5405 5403 5401 5400 5399 5398 5397 5397 5398 5399 5401 5403 5403 5400 5399 5398 5397 5396 5395 5394 5393 5392 5391 5390 5388 5387 5387 5387 5386
5469 5468 5467 5466 5465 5464 5462 5461 5460 5459 5459 5458 5457 5456 5455 5454 5452 5451 5450 5449 5448 5446 5445 5444 5442 5441 5441 5439 5438 5437 5435 5433 5432 5430 5428 5426 5424 5422 5421 5420 5419 5418 5417 5416 5414 5413 5412 5412 5410 5407 5406 5405 5403 5401 5398 5396 5394 5393 5391 5389 5388 5386 5386 5387 5387 5387 5389 5391 5390 5389 5388 5387 5386 5385 5384 5382 5381 5381 5379 5377 5376 5375 5374 5374 5374
5458 5457 5455 5454 5453 5452 5451 5450 5449 5448 5447 5446 5445 5444 5443 5442 5441 5439 5438 5437 5436 5435 5433 5432 5431 5429 5429 5427 5426 5425 5423 5422 5420 5418 5416 5414 5412 5411 5409 5408 5407 5406 5405 5404 5403 5402 5401 5400 5399 5397 5396 5394 5392 5390 5387 5385 5384 5382 5381 5379 5377 5376 5376 5376 5376 5376 5377 5378 5378 5377 5376 5375 5375 5374 5373 5370 5369 5369 5366 5364 5365 5364 5362 5362 5363
5447 5446 5444 5443 5442 5441 5440 5439 5438 5436 5435 5434 5433 5432 5431 5430 5429 5428 5426 5425 5424 5423 5422 5420 5419 5417 5416 5415 5414 5413 5411 5410 5408 5406 5404 5402 5401 5399 5398 5396 5395 5394 5393 5393 5391 5390 5390 5389 5388 5386 5385 5383 5382 5379 5377 5375 5374 5372 5371 5369 5366 5366 5366 5366 5365 5365 5365 5366 5366 5366 5364 5364 5363 5362 5361 5358 5357 5356 5352 5350 5353 5354 5350 5349 5351
5436 5435 5434 5432 5431 5430 5428 5427 5426 5425 5424 5423 5422 5421 5420 5419 5418 5416 5415 5414 5413 5411 5410 5408 5407 5406 5404 5403 5402 5401 5400 5398 5397 5395 5393 5391 5389 5388 5387 5385 5384 5383 5382 5381 5380 5379 5379 5377 5376 5375 5374 5373 5371 5369 5367 5365 5363 5362 5361 5358 5356 5356 5356 5355 5354 5354 5353 5354 5355 5354 5352 5352 5352 5350 5348 5346 5344 5342 5339 5337 5340 5342 5339 5338 5340
5425 5424 5423 5421 5420 5419 5417 5416 5416 5414 5413 5413 5411 5410 5409 5407 5406 5405 5404 5403 5401 5400 5398 5397 5396 5394 5393 5392 5391 5390 5388 5387 5385 5383 5381 5380 5378 5377 5376 5375 5374 5372 5371 5370 5369 5369 5367 5366 5365 5364 5363 5362 5360 5358 5357 5355 5353 5352 5350 5348 5347 5345 5345 5344 5343 5343 5342 5342 5343 5342 5341 5342 5341 5337 5335 5333 5330 5328 5327 5325 5327 5328 5326 5326 5329
5415 5413 5412 5411 5409 5408 5407 5406 5405 5404 5403 5402 5400 5399 5398 5397 5396 5394 5393 5392 5390 5388 5387 5386 5384 5383 5382 5381 5380 5378 5377 5375 5373 5372 5370 5369 5368 5366 5365 5364 5363 5361 5361 5360 5359 5358 5356 5355 5354 5353 5352 5351 5349 5348 5346 5344 5343 5341 5339 5338 5337 5335 5334 5333 5333 5332 5331 5331 5332 5331 5330 5330 5329 5325 5322 5320 5316 5314 5314 5313 5314 5315 5312 5312 5317
5404 5403 5401 5400 5399 5398 5397 5395 5394 5393 5392 5391 5390 5389 5388 5386 5385 5384 5382 5381 5379 5378 5376 5375 5374 5373 5371 5370 5369 5367 5366 5364 5362 5361 5359 5358 5357 5356 5354 5353 5352 5351 5350 5349 5348 5347 5346 5345 5344 5343 5342 5340 5339 5337 5335 5333 5332 5330 5329 5328 5326 5325 5324 5323 5322 5321 5320 5319 5320 5320 5319 5318 5316 5313 5310 5306 5303 5301 5302 5302 5301 5301 5299 5299 5303
5394 5392 5391 5390 5389 5387 5386 5385 5383 5382 5381 5380 5379 5378 5377 5376 5374 5373 5371 5370 5368 5367 5366 5365 5364 5362 5361 5359 5358 5356 5355 5353 5351 5350 5348 5347 5346 5345 5344 5343 5342 5341 5340 5339 5338 5337 5336 5335 5334 5333 5331 5329 5328 5326 5325 5323 5321 5320 5319 5318 5317 5316 5314 5312 5311 5310 5309 5308 5308 5309 5308 5304 5303 5302 5298 5292 5289 5289 5289 5289 5288 5286 5287 5287 5289
5383 5382 5381 5379 5378 5377 5375 5374 5372 5371 5370 5369 5368 5367 5366 5365 5363 5362 5360 5359 5358 5357 5355 5354 5353 5351 5350 5349 5347 5345 5343 5342 5340 5339 5337 5336 5334 5333 5333 5333 5332 5331 5330 5329 5328 5327 5326 5325 5324 5323 5321 5319 5317 5315 5314 5313 5311 5310 5309 5308 5307 5305 5304 5302 5299 5297 5297 5296 5296 5297 5295 5292 5290 5290 5285 5279 5277 5277 5276 5275 5274 5273 5273 5274 5275
5372 5371 5370 5369 5368 5366 5365 5363 5362 5360 5359 5358 5357 5356 5355 5353 5352 5351 5349 5348 5347 5345 5344 5343 5342 5340 5339 5337 5336 5334 5332 5331 5329 5328 5326 5325 5323 5322 5323 5323 5323 5322 5321 5319 5318 5317 5316 5315 5314 5313 5311 5309 5307 5305 5304 5302 5300 5300 5299 5297 5296 5295 5293 5292 5288 5285 5285 5285 5285 5284 5282 5279 5277 5276 5273 5268 5266 5265 5263 5261 5260 5260 5260 5261 5263
5361 5360 5359 5358 5357 5355 5354 5352 5351 5350 5348 5347 5346 5345 5344 5342 5341 5340 5339 5337 5336 5335 5333 5332 5331 5329 5328 5326 5325 5323 5321 5320 5319 5317 5316 5315 5313 5313 5314 5314 5313 5313 5312 5310 5309 5307 5306 5305 5304 5302 5301 5299 5297 5294 5293 5291 5290 5289 5288 5287 5285 5284 5283 5281 5277 5274 5273 5273 5273 5272 5270 5267 5264 5263 5261 5257 5254 5252 5248 5247 5248 5247 5247 5248 5250
5349 5348 5347 5346 5345 5344 5343 5342 5340 5339 5338 5337 5335 5334 5333 5332 5331 5330 5328 5327 5326 5325 5323 5321 5320 5319 5317 5316 5314 5312 5311 5310 5309 5308 5307 5305 5304 5304 5305 5304 5303 5303 5302 5301 5300 5298 5296 5295 5294 5292 5291 5289 5286 5284 5282 5280 5280 5279 5277 5276 5275 5274 5273 5270 5266 5264 5262 5260 5259 5258 5258 5256 5253 5251 5248 5245 5242 5239 5235 5235 5237 5234 5232 5234 5238
5338 5337 5336 5335 5334 5333 5332 5331 5330 5328 5327 5326 5325 5324 5323 5322 5321 5320 5318 5317 5315 5314 5313 5311 5309 5308 5307 5305 5304 5302 5301 5300 5299 5298 5297 5296 5295 5295 5295 5295 5294 5293 5292 5291 5290 5289 5287 5286 5284 5283 5281 5279 5277 5274 5272 5270 5270 5269 5266 5265 5264 5264 5263 5258 5254 5253 5251 5249 5247 5245 5244 5243 5241 5238 5236 5233 5230 5226 5223 5225 5226 5221 5219 5222 5224
5326 5325 5325 5324 5324 5323 5321 5320 5319 5318 5317 5316 5315 5314 5312 5311 5310 5309 5308 5306 5305 5303 5302 5301 5299 5298 5297 5296 5294 5293 5292 5291 5290 5290 5289 5287 5286 5286 5286 5285 5285 5284 5283 5282 5280 5279 5278 5276 5275 5273 5271 5269 5267 5265 5262 5259 5259 5259 5257 5254 5254 5254 5251 5246 5243 5242 5240 5237 5236 5233 5231 5229 5227 5226 5224 5221 5218 5214 5210 5210 5212 5209 5208 5210 5210
5314 5314 5314 5313 5312 5312 5311 5310 5309 5308 5307 5306 5304 5303 5302 5301 5299 5298 5297 5296 5294 5293 5292 5291 5289 5289 5287 5286 5285 5284 5283 5282 5282 5281 5280 5279 5277 5277 5276 5276 5275 5274 5273 5272 5271 5270 5268 5266 5264 5262 5261 5259 5256 5254 5252 5248 5246 5246 5246 5245 5244 5242 5238 5234 5232 5231 5228 5226 5224 5221 5219 5217 5214 5212 5211 5209 5206 5203 5198 5196 5196 5196 5195 5196 5196
5303 5302 5302 5302 5301 5301 5300 5299 5298 5298 5297 5295 5294 5293 5292 5290 5289 5288 5287 5286 5284 5283 5282 5281 5280 5279 5278 5277 5276 5276 5275 5274 5273 5272 5271 5270 5269 5268 5268 5267 5266 5264 5263 5262 5261 5260 5258 5256 5254 5252 5250 5248 5246 5243 5241 5238 5234 5233 5234 5233 5231 5229 5225 5223 5221 5219 5216 5214 5213 5210 5208 5205 5202 5200 5197 5195 5193 5190 5186 5183 5181 5181 5181 5182 5182
5292 5292 5291 5291 5291 5290 5289 5289 5288 5287 5286 5285 5284 5283 5282 5280 5279 5278 5277 5276 5275 5274 5273 5272 5271 5270 5270 5269 5268 5267 5267 5266 5265 5263 5262 5261 5260 5259 5258 5257 5256 5255 5254 5253 5251 5250 5248 5246 5244 5241 5239 5237 5235 5233 5231 5228 5224 5222 5221 5220 5217 5215 5212 5211 5210 5207 5205 5203 5201 5199 5197 5193 5191 5188 5185 5183 5180 5176 5172 5170 5168 5166 5167 5168 5168
5283 5283 5282 5282 5281 5280 5280 5279 5278 5277 5276 5275 5274 5273 5272 5271 5270 5269 5268 5267 5266 5266 5265 5264 5263 5262 5261 5260 5260 5259 5259 5258 5257 5255 5253 5252 5251 5250 5249 5248 5246 5245 5244 5243 5242 5240 5238 5236 5233 5231 5229 5227 5225 5222 5220 5218 5213 5210 5209 5206 5204 5202 5200 5198 5196 5194 5192 5191 5189 5188 5186 5183 5180 5178 5175 5171 5167 5163 5159 5157 5155 5153 5153 5155 5156
5277 5276 5275 5274 5274 5273 5272 5271 5270 5269 5268 5267 5266 5265 5264 5263 5262 5261 5260 5260 5259 5258 5257 5257 5256 5255 5254 5253 5252 5251 5251 5250 5248 5247 5245 5243 5242 5240 5239 5237 5236 5235 5234 5233 5232 5230 5228 5226 5224 5221 5219 5217 5214 5211 5209 5207 5203 5199 5197 5194 5191 5189 5187 5185 5183 5181 5179 5177 5175 5174 5173 5171 5169 5167 5165 5161 5156 5151 5147 5145 5143 5141 5140 5141 5143
5271 5270 5269 5268 5267 5266 5265 5264 5263 5262 5261 5260 5259 5258 5257 5256 5255 5254 5254 5253 5252 5251 5250 5249 5249 5248 5247 5245 5244 5243 5242 5241 5239 5238 5236 5235 5232 5230 5229 5227 5226 5225 5223 5222 5220 5218 5217 5215 5213 5211 5209 5207 5204 5200 5198 5195 5192 5189 5185 5182 5179 5176 5174 5172 5170 5168 5166 5164 5162 5161 5159 5157 5155 5153 5152 5150 5147 5143 5139 5134 5131 5129 5128 5129 5130
5266 5265 5264 5263 5262 5261 5260 5259 5257 5256 5255 5254 5253 5252 5251 5250 5249 5248 5247 5246 5245 5243 5242 5241 5241 5240 5239 5238 5236 5234 5233 5231 5230 5228 5227 5225 5223 5221 5219 5218 5216 5214 5212 5211 5209 5207 5206 5204 5203 5201 5198 5195 5193 5189 5186 5183 5180 5178 5174 5170 5167 5163 5161 5159 5157 5155 5154 5152 5150 5148 5146 5144 5141 5139 5138 5136 5135 5133 5130 5126 5123 5120 5118 5117 5118
5261 5260 5259 5257 5256 5255 5254 5253 5251 5250 5249 5248 5247 5245 5244 5243 5242 5241 5240 5239 5238 5236 5235 5234 5233 5232 5231 5229 5228 5226 5224 5222 5220 5218 5217 5215 5213 5211 5209 5208 5206 5204 5201 5199 5197 5196 5194 5193 5191 5188 5186 5183 5181 5178 5175 5172 5169 5166 5163 5159 5155 5152 5149 5146 5145 5143 5142 5140 5137 5135 5133 5131 5129 5127 5125 5123 5122 5121 5119 5117 5115 5113 5110 5107 5107
5255 5254 5253 5251 5250 5249 5248 5247 5245 5244 5243 5242 5240 5239 5238 5236 5235 5234 5233 5232 5230 5229 5227 5226 5225 5224 5223 5221 5220 5219 5216 5213 5211 5209 5207 5205 5203 5201 5200 5198 5195 5192 5190 5188 5186 5185 5183 5180 5178 5175 5173 5171 5169 5166 5164 5161 5157 5154 5151 5147 5144 5141 5137 5134 5133 5131 5129 5127 5125 5123 5121 5119 5117 5115 5113 5111 5111 5109 5107 5105 5105 5105 5102 5100 5100
5249 5247 5246 5245 5244 5243 5241 5240 5239 5237 5236 5235 5234 5232 5231 5230 5228 5227 5226 5224 5223 5221 5220 5218 5217 5216 5215 5213 5212 5211 5208 5205 5202 5199 5196 5194 5192 5190 5189 5187 5184 5181 5179 5177 5174 5172 5170 5167 5165 5163 5160 5158 5156 5154 5151 5149 5146 5143 5140 5136 5132 5129 5126 5123 5121 5119 5117 5115 5113 5112 5110 5108 5106 5104 5101 5100 5100 5099 5097 5095 5095 5095 5093 5092 5094
5242 5241 5240 5238 5237 5236 5235 5234 5232 5231 5229 5228 5227 5225 5224 5223 5221 5220 5218 5217 5215 5214 5212 5210 5209 5208 5207 5205 5204 5202 5200 5197 5194 5190 5186 5183 5180 5178 5177 5175 5173 5171 5168 5165 5161 5159 5157 5155 5153 5150 5147 5145 5144 5141 5139 5137 5134 5132 5128 5125 5121 5118 5115 5112 5109 5107 5105 5103 5101 5100 5098 5097 5095 5094 5092 5090 5090 5088 5087 5085 5085 5084 5084 5084 5085
5235 5234 5233 5232 5231 5229 5228 5227 5226 5224 5223 5222 5220 5218 5217 5216 5215 5213 5211 5210 5208 5206 5204 5203 5201 5199 5198 5196 5195 5193 5190 5188 5185 5181 5177 5173 5168 5165 5163 5162 5161 5159 5156 5152 5149 5146 5145 5143 5140 5138 5135 5132 5130 5128 5126 5124 5122 5119 5117 5113 5110 5107 5104 5101 5099 5097 5094 5092 5090 5089 5087 5086 5085 5083 5082 5081 5080 5078 5077 5076 5075 5074 5074 5074 5075
5229 5228 5227 5226 5224 5223 5222 5221 5220 5218 5217 5215 5214 5212 5210 5209 5207 5206 5204 5203 5201 5198 5196 5195 5193 5191 5189 5187 5185 5183 5180 5178 5175 5171 5167 5163 5158 5155 5152 5150 5148 5146 5143 5139 5136 5134 5133 5131 5129 5126 5124 5121 5118 5116 5114 5111 5109 5107 5104 5102 5098 5095 5093 5090 5088 5086 5083 5081 5080 5078 5077 5076 5075 5073 5072 5071 5070 5069 5067 5066 5065 5064 5063 5063 5064
5223 5222 5221 5220 5218 5217 5216 5215 5214 5212 5211 5209 5208 5206 5205 5203 5200 5198 5196 5194 5192 5190 5188 5186 5184 5182 5179 5177 5174 5172 5169 5166 5163 5160 5156 5151 5147 5145 5143 5139 5135 5132 5129 5126 5123 5121 5119 5118 5116 5114 5112 5110 5107 5105 5103 5100 5098 5095 5093 5090 5088 5085 5082 5079 5076 5074 5072 5070 5069 5067 5066 5065 5064 5063 5062 5061 5059 5059 5057 5056 5055 5054 5053 5053 5053
5217 5216 5215 5214 5212 5211 5210 5209 5208 5206 5205 5203 5202 5200 5199 5197 5195 5192 5189 5186 5183 5181 5178 5176 5174 5172 5169 5166 5163 5160 5157 5154 5150 5147 5143 5138 5134 5133 5131 5126 5122 5120 5117 5113 5111 5109 5106 5105 5103 5101 5099 5097 5095 5094 5092 5089 5087 5085 5083 5080 5078 5075 5073 5070 5067 5065 5062 5060 5058 5057 5055 5054 5053 5051 5050 5049 5048 5047 5046 5045 5044 5043 5043 5043 5043
5212 5211 5210 5208 5207 5206 5205 5203 5202 5201 5199 5197 5196 5194 5192 5190 5188 5186 5183 5180 5177 5173 5169 5165 5163 5161 5158 5155 5152 5149 5145 5141 5136 5132 5128 5124 5120 5119 5116 5112 5108 5106 5104 5101 5099 5097 5094 5093 5091 5089 5088 5086 5084 5082 5080 5078 5076 5074 5072 5070 5068 5066 5063 5061 5059 5057 5054 5052 5050 5048 5046 5044 5042 5041 5039 5038 5036 5035 5034 5033 5032 5031 5031 5031 5030
5207 5206 5205 5204 5202 5201 5200 5198 5197 5195 5193 5191 5189 5187 5185 5183 5180 5178 5175 5173 5170 5166 5162 5157 5153 5149 5146 5143 5140 5137 5133 5128 5124 5119 5114 5109 5106 5103 5101 5098 5095 5092 5090 5088 5086 5084 5083 5081 5080 5078 5077 5075 5073 5072 5070 5068 5066 5064 5062 5060 5058 5056 5054 5052 5050 5048 5046 5043 5041 5039 5037 5035 5033 5031 5029 5028 5026 5024 5022 5021 5019 5019 5018 5017 5017
5203 5202 5200 5199 5198 5196 5195 5193 5191 5189 5187 5185 5183 5180 5178 5175 5173 5170 5167 5164 5161 5158 5154 5150 5145 5140 5136 5132 5128 5125 5121 5116 5112 5107 5102 5097 5093 5090 5087 5085 5083 5080 5078 5076 5074 5073 5072 5071 5070 5069 5067 5066 5064 5062 5060 5059 5057 5055 5053 5051 5049 5047 5045 5043 5040 5038 5036 5033 5031 5029 5026 5024 5022 5020 5018 5016 5015 5013 5011 5009 5008 5006 5005 5004 5003
5198 5197 5196 5194 5193 5191 5189 5187 5185 5183 5181 5179 5176 5174 5171 5168 5165 5162 5158 5155 5152 5148 5144 5140 5136 5132 5127 5122 5118 5114 5109 5105 5101 5096 5091 5087 5084 5081 5078 5076 5073 5071 5069 5067 5066 5065 5063 5062 5061 5060 5059 5058 5056 5055 5053 5051 5049 5047 5045 5043 5041 5039 5036 5034 5031 5028 5026 5023 5020 5017 5015 5012 5010 5007 5005 5003 5002 5000 4998 4997 4995 4994 4992 4991 4990
5194 5193 5191 5189 5188 5186 5184 5182 5179 5177 5175 5172 5169 5166 5163 5160 5157 5153 5150 5146 5143 5139 5135 5131 5127 5123 5119 5114 5110 5105 5101 5097 5093 5089 5085 5081 5078 5075 5073 5070 5068 5066 5064 5062 5061 5059 5058 5057 5056 5055 5053 5052 5050 5049 5047 5044 5042 5040 5037 5035 5032 5029 5026 5024 5021 5018 5015 5012 5008 5005 5002 4999 4997 4994 4992 4989 4987 4985 4984 4982 4980 4979 4978 4977 4975
5189 5188 5186 5184 5182 5180 5178 5176 5173 5171 5168 5165 5162 5159 5156 5152 5149 5145 5141 5137 5134 5130 5126 5123 5119 5115 5112 5108 5104 5100 5096 5092 5088 5085 5081 5078 5075 5072 5070 5068 5065 5063 5061 5060 5058 5056 5054 5053 5051 5050 5048 5047 5045 5043 5040 5038 5035 5032 5029 5026 5023 5019 5016 5013 5009 5006 5003 4999 4996 4992 4989 4985 4982 4980 4977 4975 4973 4971 4969 4967 4966 4964 4963 4962 4960
5184 5183 5181 5179 5177 5175 5172 5170 5167 5164 5161 5158 5155 5152 5148 5145 5141 5137 5133 5129 5126 5122 5119 5116 5112 5109 5106 5103 5099 5096 5093 5089 5086 5083 5079 5076 5073 5071 5068 5066 5064 5061 5059 5057 5055 5053 5051 5049 5047 5044 5042 5040 5038 5036 5033 5030 5027 5024 5020 5017 5013 5009 5005 5001 4997 4994 4990 4986 4983 4979 4976 4972 4969 4966 4963 4961 4958 4956 4955 4953 4951 4950 4948 4947 4946
5180 5178 5176 5174 5172 5169 5166 5164 5161 5158 5155 5152 5148 5145 5141 5137 5133 5129 5126 5122 5119 5116 5113 5110 5107 5104 5101 5099 5096 5093 5090 5087 5084 5081 5078 5075 5072 5069 5066 5064 5061 5059 5056 5054 5051 5049 5047 5044 5042 5039 5037 5034 5031 5028 5025 5022 5019 5015 5011 5007 5003 4998 4994 4990 4985 4981 4978 4974 4970 4967 4963 4960 4957 4954 4951 4948 4945 4943 4941 4939 4937 4936 4934 4933 4931
5175 5173 5171 5168 5166 5164 5161 5158 5155 5152 5148 5145 5141 5138 5134 5130 5126 5123 5119 5116 5113 5111 5108 5105 5103 5100 5098 5095 5093 5090 5087 5084 5081 5078 5075 5072 5069 5067 5064 5061 5058 5056 5053 5050 5048 5045 5042 5040 5037 5034 5031 5028 5025 5021 5018 5014 5010 5006 5002 4997 4993 4988 4984 4979 4975 4970 4966 4962 4959 4955 4952 4948 4945 4942 4939 4935 4933 4930 4927 4925 4923 4921 4919 4918 4917
5170 5168 5166 5163 5161 5158 5155 5152 5149 5145 5142 5139 5135 5131 5127 5123 5120 5117 5114 5111 5108 5106 5103 5101 5099 5096 5094 5091 5089 5086 5083 5081 5078 5075 5072 5069 5067 5064 5061 5058 5055 5052 5050 5047 5044 5041 5038 5035 5032 5029 5025 5022 5018 5014 5010 5006 5001 4996 4992 4987 4983 4978 4974 4969 4965 4960 4956 4952 4948 4944 4940 4937 4933 4930 4926 4923 4920 4917 4914 4911 4909 4907 4905 4904 4903
5166 5163 5161 5158 5155 5152 5149 5146 5143 5139 5136 5132 5128 5125 5121 5117 5114 5111 5108 5106 5103 5101 5099 5097 5094 5092 5090 5087 5085 5082 5080 5077 5075 5072 5069 5066 5063 5060 5057 5055 5052 5049 5046 5043 5040 5037 5034 5030 5027 5023 5019 5015 5011 5006 5002 4997 4992 4987 4983 4978 4973 4968 4964 4959 4955 4951 4947 4942 4938 4933 4929 4925 4921 4917 4914 4911 4907 4905 4902 4899 4897 4895 4893 4891 4890
5161 5159 5156 5153 5150 5147 5143 5140 5137 5133 5130 5126 5122 5118 5115 5111 5109 5106 5103 5101 5099 5096 5094 5092 5090 5088 5086 5084 5081 5079 5076 5074 5071 5068 5066 5063 5060 5057 5054 5051 5048 5045 5042 5039 5036 5032 5029 5025 5021 5017 5013 5008 5004 4999 4994 4989 4984 4979 4974 4970 4965 4960 4956 4951 4947 4942 4938 4933 4929 4924 4919 4915 4911 4907 4904 4900 4897 4895 4892 4889 4887 4885 4883 4882 4880
5157 5154 5151 5148 5145 5141 5138 5134 5131 5127 5124 5120 5116 5112 5109 5106 5103 5101 5098 5096 5094 5092 5090 5088 5086 5084 5082 5080 5077 5075 5073 5070 5068 5065 5062 5060 5057 5054 5051 5048 5045 5041 5038 5035 5031 5028 5024 5020 5016 5011 5006 5002 4997 4992 4987 4982 4977 4972 4967 4963 4958 4953 4949 4944 4940 4935 4930 4925 4920 4915 4910 4906 4902 4898 4895 4892 4889 4887 4884 4882 4879 4877 4876 4874 4873
5152 5149 5146 5143 5139 5136 5132 5129 5125 5122 5118 5114 5110 5107 5104 5101 5098 5096 5094 5091 5089 5087 5085 5083 5082 5080 5078 5076 5074 5072 5069 5067 5064 5062 5059 5056 5053 5050 5047 5044 5041 5038 5034 5030 5027 5023 5019 5014 5010 5005 5000 4995 4990 4985 4980 4975 4970 4965 4961 4956 4952 4947 4943 4938 4933 4928 4923 4917 4912 4908 4903 4899 4896 4893 4889 4886 4884 4881 4878 4876 4874 4872 4870 4869 4867
5147 5144 5141 5137 5134 5130 5127 5123 5120 5116 5112 5109 5105 5101 5098 5096 5093 5091 5089 5087 5085 5083 5081 5079 5077 5076 5074 5072 5070 5068 5066 5063 5061 5058 5055 5053 5050 5047 5044 5040 5037 5033 5030 5026 5022 5018 5014 5009 5004 4999 4994 4989 4984 4979 4974 4969 4964 4959 4955 4951 4946 4942 4938 4933 4928 4923 4917 4912 4907 4903 4899 4895 4892 4888 4886 4883 4880 4877 4875 4873 4870 4869 4867 4865 4864
5142 5139 5135 5132 5129 5125 5121 5118 5114 5111 5107 5103 5100 5096 5093 5091 5089 5086 5084 5082 5080 5078 5076 5075 5073 5071 5070 5068 5066 5064 5061 5059 5057 5054 5051 5049 5046 5043 5039 5036 5032 5029 5025 5021 5017 5013 5009 5004 4999 4994 4989 4984 4979 4974 4969 4964 4959 4955 4950 4946 4942 4938 4934 4929 4923 4918 4913 4908 4904 4900 4896 4892 4889 4886 4883 4881 4878 4876 4873 4871 4869 4867 4865 4864 4862
5136 5133 5130 5127 5123 5120 5116 5112 5109 5105 5102 5098 5095 5091 5089 5086 5084 5082 5079 5077 5075 5074 5072 5070 5069 5067 5065 5064 5062 5060 5057 5055 5052 5050 5047 5045 5042 5039 5035 5032 5028 5024 5021 5017 5013 5008 5004 4999 4994 4989 4984 4979 4974 4969 4964 4960 4955 4951 4947 4943 4939 4935 4930 4926 4920 4915 4911 4906 4902 4898 4894 4891 4888 4885 4883 4880 4878 4876 4873 4871 4869 4868 4866 4864 4863